Showing default

FLOCK 4H 22, 66725

Orbit data source: Space-Track

FLOCK 4H 22, 66725 is a payload satellite owned by Planet (US) in SSO that was launched on Fri, 28 Nov 2025 UTC via an FALCON 9 launch vehicle from the Air Force Western Test Range (AFWTR). Payload-class satellites include a variety of spacecraft equipped with specific instruments for various scientific and technological missions. These include communications satellites like Starlink; space stations such as the ISS; scientific satellites like the Hubble; Earth observation satellites from companies like Planet Labs, Umbra, and HawkEye 360; GPS; miniature CubeSats for education and research; and military/defense satellites.

Loading next visibility...
Identifier
66725, 2025-276BM
Orbit
SSO
Country
Flag of USUS
Related business
Manufacturer
Planet
Mission
Operational Commercial Imaging
Bus & Motor
CUBESAT 3U, Unknown motor
Mass
5.7 kg wet, 5.7 kg dry
Launch date (UTC)
2025-11-28 (9 months ago)
Launch vehicle
FALCON 9
Launch site
Air Force Western Test Range (AFWTR)
Object type
Payload
Rocket body
Debris
Shape & HBR
Box + 2 Pan, 1.0 m
Radar Cross Section
0.072 m², Medium (>0.1 m² and < 1m²)

Expand to show TLE details & history
Last TLE update: 12 hours ago

TLE from 12 hours ago
0 FLOCK 4H 22
1 66725U 25276BM  26238.19942123  .00006145  00000-0  28014-3 0  9994
2 66725  97.4132 310.5804 0004102 125.5164 234.6455 15.21001091 41066
Epoch: 2026-08-26T04:47Z
TLE epoch observation values (Epoch: 2026-08-26T04:47:09.994Z)
Latitude
0.00002°
Longitude
-95.66709°
Altitude
507.546 km
Speed
7.609 km/s
True Right ascension
20h 42m 19s
True Declination
0° 00' 00"
Sunlit
Object was in full shadow at epoch
Visualization orbit readout
Latitude
Unknown
Longitude
Unknown
Altitude
Unknown
Speed
Unknown
Apparent Right ascension
Unknown
Apparent Declination
Unknown
Sunlit
N/A
Visualization observer readout
Local Sidereal Time
08:21:32
Azimuth
Unknown
Elevation
Unknown
Doppler factor
Unknown
Orbital elements
Apogee altitude
502.606 km
Perigee altitude
496.963 km
Semi-major axis
6,877.921 km
Eccentricity
0.00041
Inclination
97.4132°
RAAN
310.5804°
Arg. of periapsis
125.5164°
True anomaly
234.60717°
Mean anomaly
234.6455°
Eccentric anomaly
234.62634°
Mean motion
3.80502 °/min
Orbital period
94.61 mins
BSTAR
0.00028014
Loading maneuver chart data...
Computing Atmospheric mass density...
Loading historical data...
Loading historical data...
Loading historical data...
Loading historical data...
Loading historical data...
Loading historical data...
Loading historical data...

Documentation

Showing up to 5 results
|